Fort Madison, IA

10:23 PM CDT on July 23, 2017 (GMT -0500)
Fort Madison Municipal

Weather History for KFSW - December, 2013

Change the Weather History Date:

Tuesday, December 24, 2013

  Actual Average Record
Temperature  
Mean Temperature 5 °F -  
Max Temperature 19 °F 33 °F 65 °F (1982)
Min Temperature -9 °F 16 °F -19 °F (1983)
Degree Days  
Heating Degree Days 60    
Moisture  
Dew Point -6 °F    
Average Humidity 61    
Maximum Humidity 71    
Minimum Humidity 44    
Precipitation  
Precipitation 0.00 in - - ()
Sea Level Pressure  
Sea Level Pressure 30.46 in    
Wind  
Wind Speed 6 mph (South)    
Max Wind Speed 13 mph    
Max Gust Speed 20 mph    
Visibility 10 miles    
Events      
Averages and records for this station are not official NWS values.
T = Trace of Precipitation, MM = Missing Value Source: NWS Daily Summary

Daily Weather History Graph

Daily Weather History Graph

Search for Another Location

Airport or City:

Trip Planner

Search our weather history database for the weather conditions in past years. The results will help you decide how hot, cold, wet, or windy it might be!

Date:

Astronomy

Dec. 24, 2013 Rise Set
Actual Time 7:27 AM CST 4:43 PM CST
Civil Twilight 6:56 AM CST 5:14 PM CST
Nautical Twilight 6:21 AM CST 5:48 PM CST
Astronomical Twilight 5:48 AM CST 6:21 PM CST
Moon 11:53 PM CST 11:19 AM CST
Length of Visible Light 10h 17m
Length of Day
9h 15m
Waning Gibbous, 58% of the Moon is Illuminated
Dec 24
Waning Gibbous
Dec 25
Last Quarter
Jan 1
New
Jan 7
First Quarter
Jan 15
Full

Hourly Weather History & Observations

Time (CST) Temp. Windchill Dew Point Humidity Pressure Visibility Wind Dir Wind Speed Gust Speed Precip Events Conditions
12:15 AM -0.4 °F -14.7 °F -11.2 °F 60% 30.56 in 10.0 mi West 8.1 mph - N/A   Clear
12:35 AM -0.4 °F -13.4 °F -13.0 °F 55% 30.55 in 10.0 mi West 6.9 mph - N/A   Clear
12:55 AM -2.2 °F -18.0 °F -13.0 °F 60% 30.55 in 10.0 mi WNW 9.2 mph - N/A   Clear
1:15 AM -2.2 °F -16.8 °F -14.8 °F 55% 30.54 in 10.0 mi WNW 8.1 mph - N/A   Clear
1:35 AM -2.2 °F -16.8 °F -14.8 °F 55% 30.55 in 10.0 mi WNW 8.1 mph - N/A   Clear
1:55 AM -2.2 °F -16.8 °F -14.8 °F 55% 30.55 in 10.0 mi West 8.1 mph - N/A   Clear
2:15 AM -4.0 °F -17.8 °F -14.8 °F 60% 30.56 in 10.0 mi West 6.9 mph - N/A   Clear
2:35 AM -4.0 °F -16.3 °F -14.8 °F 60% 30.56 in 10.0 mi West 5.8 mph - N/A   Clear
2:55 AM -5.8 °F -16.7 °F -14.8 °F 65% 30.57 in 10.0 mi West 4.6 mph - N/A   Clear
3:15 AM -5.8 °F -14.5 °F -14.8 °F 65% 30.56 in 10.0 mi West 3.5 mph - N/A   Clear
3:35 AM -5.8 °F -18.4 °F -14.8 °F 65% 30.56 in 10.0 mi West 5.8 mph - N/A   Clear
3:55 AM -5.8 °F -16.7 °F -16.6 °F 60% 30.56 in 10.0 mi WNW 4.6 mph - N/A   Clear
4:15 AM -5.8 °F -18.4 °F -16.6 °F 60% 30.56 in 10.0 mi WNW 5.8 mph - N/A   Clear
4:35 AM -5.8 °F -18.4 °F -16.6 °F 60% 30.56 in 10.0 mi West 5.8 mph - N/A   Clear
4:55 AM -7.6 °F -20.6 °F -16.6 °F 65% 30.56 in 10.0 mi West 5.8 mph - N/A   Clear
5:15 AM -7.6 °F - -16.6 °F 65% 30.56 in 10.0 mi Calm Calm - N/A   Clear
5:35 AM -7.6 °F - -16.6 °F 65% 30.56 in 10.0 mi Calm Calm - N/A   Clear
5:55 AM -7.6 °F -18.8 °F -16.6 °F 65% 30.56 in 10.0 mi West 4.6 mph - N/A   Clear
6:15 AM -7.6 °F - -16.6 °F 65% 30.56 in 10.0 mi Calm Calm - N/A   Clear
6:35 AM -7.6 °F - -16.6 °F 65% 30.56 in 10.0 mi Calm Calm - N/A   Clear
6:55 AM -7.6 °F - -16.6 °F 65% 30.56 in 10.0 mi Calm Calm - N/A   Clear
7:15 AM -9.4 °F - -16.6 °F 71% 30.55 in 10.0 mi Calm Calm - N/A   Clear
7:35 AM -9.4 °F -18.6 °F -16.6 °F 71% 30.56 in 10.0 mi West 3.5 mph - N/A   Clear
7:55 AM -9.4 °F - -16.6 °F 71% 30.55 in 10.0 mi Calm Calm - N/A   Clear
8:15 AM -7.6 °F - -16.6 °F 65% 30.55 in 10.0 mi Calm Calm - N/A   Clear
8:35 AM -5.8 °F - -14.8 °F 65% 30.55 in 10.0 mi Calm Calm - N/A   Clear
8:55 AM -4.0 °F -12.4 °F -14.8 °F 60% 30.56 in 10.0 mi South 3.5 mph - N/A   Clear
9:15 AM -2.2 °F -10.4 °F -13.0 °F 60% 30.56 in 10.0 mi SE 3.5 mph - N/A   Clear
9:35 AM -0.4 °F -8.3 °F -13.0 °F 55% 30.57 in 10.0 mi South 3.5 mph - N/A   Clear
9:55 AM -0.4 °F -10.4 °F -14.8 °F 51% 30.57 in 10.0 mi SSE 4.6 mph - N/A   Clear
10:15 AM -0.4 °F -10.4 °F -14.8 °F 51% 30.56 in 10.0 mi SE 4.6 mph - N/A   Clear
10:35 AM 1.4 °F -13.5 °F -13.0 °F 51% 30.56 in 10.0 mi SSE 9.2 mph - N/A   Clear
10:55 AM 1.4 °F -9.9 °F -11.2 °F 56% 30.55 in 10.0 mi SE 5.8 mph - N/A   Clear
11:15 AM 1.4 °F -14.5 °F -11.2 °F 56% 30.55 in 10.0 mi South 10.4 mph - N/A   Clear
11:35 AM 3.2 °F -10.3 °F -9.4 °F 56% 30.54 in 10.0 mi South 8.1 mph - N/A   Clear
11:55 AM 3.2 °F -7.8 °F -9.4 °F 56% 30.53 in 10.0 mi South 5.8 mph - N/A   Clear
12:15 PM 5.0 °F -8.1 °F -9.4 °F 52% 30.52 in 10.0 mi South 8.1 mph - N/A   Clear
12:35 PM 6.8 °F -3.5 °F -9.4 °F 48% 30.50 in 10.0 mi SSE 5.8 mph - N/A   Clear
12:55 PM 8.6 °F -3.7 °F -9.4 °F 44% 30.49 in 10.0 mi South 8.1 mph - N/A   Scattered Clouds
1:15 PM 8.6 °F -1.3 °F -7.6 °F 48% 30.48 in 10.0 mi SE 5.8 mph - N/A   Scattered Clouds
1:35 PM 8.6 °F -1.3 °F -7.6 °F 48% 30.47 in 10.0 mi SSE 5.8 mph - N/A   Mostly Cloudy
1:55 PM 8.6 °F -3.7 °F -5.8 °F 52% 30.46 in 10.0 mi SSE 8.1 mph - N/A   Mostly Cloudy
2:15 PM 8.6 °F -2.6 °F -5.8 °F 52% 30.45 in 10.0 mi SSE 6.9 mph - N/A   Mostly Cloudy
2:35 PM 10.4 °F -1.5 °F -2.2 °F 57% 30.44 in 10.0 mi SSE 8.1 mph - N/A   Mostly Cloudy
2:55 PM 10.4 °F -0.4 °F -2.2 °F 57% 30.43 in 10.0 mi SE 6.9 mph - N/A   Overcast
3:15 PM 10.4 °F 0.8 °F -2.2 °F 57% 30.42 in 10.0 mi SE 5.8 mph - N/A   Overcast
3:35 PM 10.4 °F -1.5 °F -0.4 °F 62% 30.40 in 10.0 mi SE 8.1 mph - N/A   Overcast
3:55 PM 12.2 °F 1.7 °F 1.4 °F 62% 30.39 in 10.0 mi SE 6.9 mph - N/A   Mostly Cloudy
4:15 PM 12.2 °F -1.0 °F 3.2 °F 67% 30.38 in 10.0 mi SE 10.4 mph - N/A   Mostly Cloudy
4:35 PM 14.0 °F 2.0 °F 3.2 °F 62% 30.36 in 10.0 mi SE 9.2 mph - N/A   Overcast
4:55 PM 15.8 °F 5.1 °F 3.2 °F 58% 30.35 in 10.0 mi SE 8.1 mph - N/A   Overcast
5:15 PM 15.8 °F 5.1 °F 5.0 °F 62% 30.35 in 10.0 mi SE 8.1 mph - N/A   Mostly Cloudy
5:35 PM 15.8 °F 2.7 °F 6.8 °F 68% 30.33 in 10.0 mi SE 11.5 mph 19.6 mph N/A   Mostly Cloudy
5:55 PM 15.8 °F 2.1 °F 6.8 °F 68% 30.33 in 10.0 mi SSE 12.7 mph 17.3 mph N/A   Overcast
6:15 PM 15.8 °F 5.1 °F 6.8 °F 68% 30.34 in 10.0 mi SE 8.1 mph - N/A   Mostly Cloudy
6:35 PM 15.8 °F 5.1 °F 6.8 °F 68% 30.34 in 10.0 mi SSE 8.1 mph 19.6 mph N/A   Scattered Clouds
6:55 PM 15.8 °F 2.7 °F 6.8 °F 68% 30.33 in 10.0 mi SSE 11.5 mph 16.1 mph N/A   Mostly Cloudy
7:15 PM 17.6 °F 5.7 °F 6.8 °F 63% 30.34 in 10.0 mi SSE 10.4 mph - N/A   Overcast
7:35 PM 17.6 °F 5.0 °F 8.6 °F 68% 30.32 in 10.0 mi SSE 11.5 mph - N/A   Mostly Cloudy
7:55 PM 17.6 °F 7.3 °F 8.6 °F 68% 30.32 in 10.0 mi SSE 8.1 mph - N/A   Mostly Cloudy
8:15 PM 17.6 °F 6.4 °F 8.6 °F 68% 30.32 in 10.0 mi SSE 9.2 mph 16.1 mph N/A   Overcast
8:35 PM 17.6 °F 5.0 °F 8.6 °F 68% 30.31 in 10.0 mi SSE 11.5 mph - N/A   Overcast
8:55 PM 17.6 °F 4.3 °F 6.8 °F 63% 30.30 in 10.0 mi SSE 12.7 mph 16.1 mph N/A   Mostly Cloudy
9:15 PM 17.6 °F 6.4 °F 6.8 °F 63% 30.30 in 10.0 mi SSE 9.2 mph - N/A   Mostly Cloudy
9:35 PM 17.6 °F 6.4 °F 6.8 °F 63% 30.30 in 10.0 mi SSE 9.2 mph - N/A   Overcast
9:55 PM 19.4 °F 7.9 °F 8.6 °F 63% 30.30 in 10.0 mi SSE 10.4 mph - N/A   Overcast
10:15 PM 19.4 °F 11.5 °F 8.6 °F 63% 30.30 in 10.0 mi SSE 5.8 mph - N/A   Overcast
10:35 PM 19.4 °F 9.5 °F 8.6 °F 63% 30.30 in 10.0 mi SSE 8.1 mph - N/A   Overcast
10:55 PM 19.4 °F 7.9 °F 8.6 °F 63% 30.29 in 10.0 mi SSE 10.4 mph - N/A   Overcast
11:15 PM 19.4 °F 8.6 °F 8.6 °F 63% 30.29 in 10.0 mi South 9.2 mph - N/A   Overcast
11:35 PM 19.4 °F 7.9 °F 10.4 °F 68% 30.28 in 10.0 mi SSE 10.4 mph - N/A   Overcast
11:55 PM 19.4 °F 7.9 °F 10.4 °F 68% 30.28 in 10.0 mi South 10.4 mph - N/A   Overcast